Temperature
6 8 7 7 6 6 6 7 7 7 5 5 5 6 5 4 3 2 2 2 1 1 1 1 1 1 2 2 2 3 3 4 4 4 4 4 5 5 5 5 6 6 6 6
7 6 5 5 5 5 5 6 6 6 4 4 4 5 5 3 2 2 2 2 1 1 1 1 1 1 1 1 2 2 2 3 3 4 4 4 4 4 4 5 5 5 5 6
7 5 4 4 4 5 5 5 5 5 4 4 3 6 5 4 2 1 1 1 0 0 -0 -0 0 0 1 1 1 1 2 2 2 3 3 3 3 4 4 4 4 5 5 5
5 4 3 4 4 4 5 4 3 3 4 5 4 6 6 3 3 2 1 1 0 -0 -1 -0 -0 -0 0 0 0 1 1 1 2 2 2 2 3 3 3 3 4 4 4 5
4 3 3 4 3 3 4 2 2 2 3 3 3 4 6 3 3 3 2 0 -0 -1 -1 -1 -1 -1 -0 -0 -0 0 1 1 1 1 2 2 2 2 3 3 3 4 4 4
3 2 2 2 2 2 2 2 2 2 3 4 3 4 6 4 2 2 1 -0 -1 -1 -1 -1 -1 -1 -1 -1 -1 -0 -0 0 0 1 1 1 1 2 2 2 3 3 3 4
4 2 1 1 2 2 2 4 5 5 5 5 2 2 4 2 1 -0 -0 -1 -1 -2 -2 -2 -2 -2 -1 -1 -1 -1 -1 -0 -0 0 0 1 1 1 1 2 2 2 3 3
4 4 2 1 2 2 2 3 4 5 6 6 2 3 4 0 -1 -2 -2 -2 -2 -2 -2 -2 -2 -2 -2 -2 -1 -1 -1 -1 -1 -0 -0 0 0 0 1 1 1 2 2 2
4 4 1 0 -0 1 1 2 1 2 1 2 4 3 2 0 -1 -1 -2 -2 -2 -3 -3 -3 -3 -3 -3 -2 -2 -2 -1 -2 -1 -1 -1 -1 -1 -0 0 0 1 1 1 1
2 2 1 -0 -0 -1 0 0 1 2 3 4 4 3 3 1 -0 -1 -2 -2 -3 -4 -4 -4 -4 -4 -3 -3 -2 -2 -2 -2 -2 -2 -2 -1 -1 -1 -0 -0 0 1 1 1
0 1 1 0 -0 1 -1 -1 -0 1 1 3 3 4 2 0 -1 -1 -2 -3 -4 -4 -4 -4 -4 -4 -4 -3 -3 -3 -2 -2 -2 -2 -2 -2 -2 -1 -1 -1 -0 -0 0 0
-0 1 1 1 -1 -2 -1 -0 -0 1 1 0 1 3 0 -1 -2 -3 -3 -4 -4 -5 -5 -5 -5 -5 -4 -4 -4 -3 -3 -3 -3 -3 -3 -2 -2 -2 -2 -1 -1 -1 -0 -0
-1 -1 1 2 -0 -2 -2 -2 -2 -2 -1 -0 0 2 -1 -2 -2 -3 -4 -4 -5 -5 -5 -5 -5 -5 -5 -5 -4 -4 -4 -4 -3 -3 -3 -3 -3 -3 -2 -2 -2 -1 -1 -1
-1 -1 1 3 3 0 -2 -3 -3 -3 -1 -0 -0 1 0 -1 -2 -3 -4 -5 -5 -5 -6 -6 -6 -6 -6 -5 -5 -5 -4 -4 -4 -4 -4 -4 -3 -3 -3 -3 -2 -2 -2 -2
-1 -1 -1 -1 -1 -2 -2 -2 -3 -3 -2 -1 -0 -1 -1 -1 -3 -4 -5 -5 -6 -6 -6 -6 -7 -6 -6 -6 -6 -5 -5 -5 -5 -4 -4 -4 -4 -4 -4 -3 -3 -3 -2 -2
-3 -2 -3 -3 -2 -3 -3 -2 -3 -3 -3 -2 -2 -2 -2 -4 -5 -5 -5 -6 -7 -7 -7 -7 -7 -7 -7 -6 -6 -6 -5 -5 -5 -5 -5 -5 -5 -5 -4 -4 -4 -3 -3 -3
-3 -4 -3 -1 -3 -4 -2 -2 -3 -3 -4 -3 -2 -2 -3 -4 -5 -6 -6 -7 -7 -7 -7 -8 -7 -7 -7 -7 -7 -6 -6 -6 -6 -6 -5 -5 -5 -5 -5 -5 -4 -4 -4 -4
-4 -4 -3 -2 -3 -2 -0 -4 -4 -4 -4 -4 -4 -4 -5 -6 -6 -7 -7 -7 -8 -8 -8 -8 -8 -8 -7 -7 -7 -7 -6 -6 -6 -6 -6 -6 -6 -5 -5 -5 -5 -5 -5 -4
-5 -4 -3 -3 -2 -1 -1 -4 -5 -5 -4 -5 -5 -5 -6 -7 -7 -6 -6 -7 -8 -8 -8 -8 -8 -8 -8 -8 -7 -7 -7 -7 -6 -6 -6 -6 -6 -6 -6 -6 -6 -5 -5 -5
-6 -5 -4 -4 -3 -2 -1 -5 -7 -5 -4 -5 -6 -6 -7 -7 -5 -4 -7 -8 -8 -8 -9 -8 -8 -8 -8 -8 -8 -8 -7 -7 -7 -7 -7 -7 -7 -7 -7 -6 -6 -6 -6 -6
-6 -6 -5 -4 -3 -2 -3 -7 -7 -4 -3 -6 -7 -7 -8 -7 -7 -8 -8 -9 -9 -9 -9 -9 -9 -9 -9 -8 -8 -8 -8 -8 -7 -7 -7 -7 -7 -7 -7 -7 -7 -7 -7 -6
-5 -5 -5 -5 -4 -3 -6 -7 -5 -4 -6 -7 -7 -8 -8 -9 -9 -9 -9 -9 -9 -9 -9 -9 -9 -9 -9 -9 -9 -8 -8 -8 -8 -8 -8 -8 -8 -8 -8 -8 -8 -7 -7 -7
-5 -5 -4 -4 -3 -5 -6 -6 -6 -6 -7 -7 -8 -8 -9 -9 -9 -9 -9 -9 -9 -9 -9 -9 -9 -9 -9 -9 -9 -9 -9 -8 -8 -8 -8 -8 -8 -8 -8 -8 -8 -8 -8 -8
-6 -8 -6 -6 -5 -6 -7 -7 -7 -7 -7 -8 -8 -9 -9 -9 -10 -9 -10 -10 -10 -10 -10 -10 -10 -9 -9 -9 -9 -9 -9 -9 -9 -8 -8 -9 -9 -9 -9 -9 -9 -9 -9 -8
-5 -7 -7 -7 -6 -7 -7 -7 -7 -8 -8 -8 -9 -9 -9 -10 -10 -10 -10 -10 -10 -10 -10 -10 -10 -10 -10 -10 -10 -10 -10 -9 -9 -9 -9 -9 -9 -9 -9 -9 -9 -9 -9 -9
-7 -7 -6 -5 -6 -7 -7 -7 -8 -8 -9 -9 -9 -9 -10 -10 -10 -10 -10 -10 -10 -10 -10 -10 -10 -10 -10 -10 -10 -10 -10 -10 -10 -10 -10 -10 -10 -10 -10 -10 -10 -10 -9 -9
Wind_Speed
3 1 0 1 2 3 4 6 8 6 4 6 10 12 10 6 6 6 6 6 6 6 5 4 4 4 4 5 5 5 5 5 4 3 3 3 3 3 2 2 2 2 2 2
2 0 1 1 1 2 4 6 8 6 4 6 9 12 9 6 5 5 5 6 6 6 5 5 5 4 4 5 5 5 5 5 5 4 4 3 4 3 3 3 3 2 2 2
1 2 2 1 0 3 5 6 8 8 8 5 8 8 5 3 4 4 4 5 5 5 6 5 5 5 5 5 5 5 5 5 5 5 4 3 3 3 3 3 3 3 2 2
1 0 0 1 2 3 5 3 6 7 7 5 4 7 4 3 4 3 4 4 4 5 6 6 6 6 5 6 6 6 6 5 5 5 4 4 3 4 4 4 3 3 3 2
0 0 0 2 3 3 4 4 5 6 5 6 4 6 6 1 4 4 3 4 5 6 6 7 7 6 6 6 6 6 6 6 5 5 5 5 5 5 4 4 4 3 3 3
0 0 1 2 2 1 3 3 2 3 4 6 5 6 6 2 3 3 3 4 5 7 7 7 7 6 6 6 6 6 6 6 6 5 5 5 6 6 5 5 4 3 3 3
1 1 1 1 1 0 2 3 3 3 4 4 2 5 7 2 2 3 4 5 6 7 7 7 7 7 7 6 6 6 6 6 6 6 5 6 6 6 6 6 5 4 3 3
3 2 1 0 1 1 1 2 2 5 5 4 3 7 3 0 2 3 4 5 6 7 7 8 8 8 8 7 6 6 6 6 6 6 6 6 6 5 5 5 5 5 4 4
2 2 2 1 1 1 1 2 1 3 4 6 6 5 5 2 2 2 3 4 6 8 8 9 9 8 8 8 7 7 6 6 6 6 6 6 6 5 6 6 6 5 5 4
2 4 1 0 2 1 2 1 2 3 4 6 7 6 4 3 3 3 4 5 7 9 9 10 9 9 9 8 8 7 6 6 6 6 6 5 6 6 6 6 6 5 5 5
2 3 2 2 4 3 3 3 3 3 4 5 7 5 1 3 2 3 5 6 8 9 9 9 9 9 9 8 8 7 6 6 6 6 6 6 6 6 6 5 6 6 5 5
2 3 4 4 1 1 4 4 5 4 5 5 6 6 2 1 2 3 6 7 7 8 8 8 9 9 8 8 8 8 7 6 7 7 6 6 7 6 5 6 6 6 5 5
4 3 3 3 2 2 4 4 5 3 3 6 7 7 2 0 3 5 7 8 8 9 9 8 9 9 9 9 8 8 8 8 7 7 6 7 7 6 6 6 6 6 6 5
4 5 7 8 5 2 5 6 7 7 6 8 12 15 10 9 9 8 8 8 8 8 9 9 9 9 9 9 8 8 8 8 8 7 7 7 7 7 6 6 6 6 6 5
3 6 7 10 9 7 9 11 11 13 13 12 13 14 15 12 10 8 7 8 8 9 10 10 11 11 11 10 9 9 9 8 8 7 7 7 7 7 7 6 6 6 6 6
3 4 3 7 7 8 11 13 14 15 15 17 18 18 11 8 6 8 8 7 8 10 10 11 11 12 11 11 10 9 9 9 8 8 8 7 7 7 7 7 6 6 6 6
5 4 3 5 2 6 9 10 11 8 9 9 12 10 6 7 8 8 9 8 9 9 10 11 11 11 11 11 10 10 10 9 9 8 8 7 7 7 7 7 6 6 6 6
6 5 3 4 2 8 3 2 4 8 8 10 9 8 7 8 9 9 8 8 9 10 10 11 11 11 11 11 10 10 9 8 8 8 7 7 7 7 7 7 7 6 6 5
5 5 4 3 5 9 4 2 3 5 6 6 8 8 8 7 8 8 4 5 8 10 10 10 10 11 11 10 10 9 9 8 8 8 8 8 7 7 7 7 7 6 6 5
2 3 4 4 5 7 2 2 2 2 5 3 4 7 6 5 7 6 5 8 10 10 9 9 9 10 10 10 9 9 9 8 8 9 9 8 7 7 7 7 7 6 6 6
3 4 6 8 8 8 1 3 4 4 4 1 4 5 5 6 7 8 9 9 9 9 9 9 9 8 8 9 9 9 9 9 9 9 9 8 7 7 7 6 6 6 5 5
6 5 6 5 7 7 4 5 5 4 4 3 5 5 6 8 8 8 9 9 9 9 9 8 8 9 9 8 8 9 9 10 9 9 8 8 7 6 5 6 6 6 5 5
7 6 5 8 7 3 4 5 4 3 5 6 5 6 7 8 8 9 8 9 8 8 8 8 8 9 9 8 7 9 10 10 9 8 8 7 6 5 5 5 5 5 4 4
5 3 5 7 9 7 8 6 6 6 6 6 6 6 6 8 9 9 8 8 8 8 7 7 8 8 9 9 8 8 9 9 8 8 7 6 5 5 5 4 4 4 4 4
4 5 5 8 8 7 6 7 6 5 5 6 6 5 6 7 8 8 8 8 8 8 7 7 7 8 9 9 9 9 8 8 7 7 6 6 5 5 5 4 4 5 5 5
5 6 6 6 4 5 6 5 5 5 6 6 6 6 6 7 8 8 8 7 7 7 7 7 8 8 8 9 9 9 8 7 6 6 6 5 5 4 4 4 5 6 6 8
Wind_Direction
38 85 75 294 261 274 273 269 277 285 306 291 272 279 284 280 277 275 273 278 278 281 292 303 309 316 320 325 325 328 329 327 324 317 315 311 305 301 294 307 280 271 286 289
133 52 305 329 273 261 261 271 282 286 300 290 287 285 283 273 253 266 271 274 280 287 300 312 314 318 319 316 316 317 318 317 316 309 301 285 285 285 286 300 293 283 280 285
146 67 71 120 315 280 263 266 281 288 301 270 293 278 250 250 250 259 273 280 289 291 294 304 308 307 311 310 310 308 308 307 310 311 303 299 291 285 279 279 274 294 295 281
89 16 245 266 288 284 277 286 284 286 289 278 297 285 268 268 256 261 272 281 290 299 299 300 300 302 306 306 306 305 305 306 308 307 295 290 285 283 284 276 274 275 284 296
117 78 315 269 293 270 286 308 281 272 263 273 248 257 274 243 262 263 275 290 298 303 300 300 296 295 300 304 306 306 309 305 303 302 296 285 282 278 283 278 273 270 274 279
320 54 335 317 324 287 295 279 247 234 240 258 245 242 272 239 268 285 300 317 316 314 311 302 301 300 301 307 308 306 307 308 303 298 297 289 285 284 287 291 279 272 270 273
286 170 65 329 292 206 314 288 283 266 243 256 195 237 259 292 295 291 296 312 323 322 316 310 312 314 308 306 306 305 304 306 305 300 294 287 286 285 280 278 273 272 267 267
285 261 151 36 284 283 248 261 268 277 278 288 232 243 258 315 325 302 297 305 319 324 323 315 311 314 315 309 301 300 299 300 303 301 298 291 287 283 282 284 281 270 267 267
265 265 93 69 9 257 201 203 305 269 278 275 259 265 276 255 296 311 315 330 329 331 327 321 317 318 316 314 308 299 298 300 302 301 299 294 291 290 287 289 284 278 278 273
246 265 240 171 163 64 323 155 184 223 267 273 273 261 263 277 294 317 325 329 332 335 332 328 323 322 321 317 314 306 299 299 299 300 298 295 292 289 290 288 285 276 277 274
217 241 242 208 216 216 169 184 217 233 261 264 277 275 245 247 279 302 314 324 326 330 332 331 329 328 324 322 323 320 310 310 307 304 301 301 298 294 293 286 285 281 280 276
191 234 256 238 123 315 222 219 199 232 239 235 267 275 100 234 289 305 313 321 327 329 329 330 330 330 331 329 329 328 319 313 310 307 304 302 302 297 295 292 294 291 283 278
164 195 267 242 200 187 221 219 214 230 250 237 244 262 106 297 302 308 313 320 325 328 330 332 333 333 332 328 326 325 322 315 311 308 304 303 304 301 295 293 297 295 287 282
178 213 232 259 292 212 232 225 207 205 231 248 245 265 281 294 306 313 316 319 321 323 327 330 331 331 331 327 322 319 318 317 313 309 303 301 302 304 295 295 295 293 289 282
201 240 241 260 271 262 256 249 225 222 235 249 264 271 281 293 301 305 310 315 317 322 326 327 328 328 328 328 321 318 316 317 315 308 301 301 305 307 302 295 293 293 291 288
217 241 252 266 261 262 266 258 243 240 245 249 263 275 284 298 301 303 308 312 312 316 320 322 324 325 324 323 320 316 314 314 312 304 300 300 302 302 302 300 296 295 294 293
199 199 230 267 294 289 267 249 226 220 221 230 250 267 300 303 301 302 304 304 306 311 315 316 317 318 317 316 316 312 309 309 306 301 303 307 304 297 298 302 299 295 295 297
190 188 221 273 288 251 264 110 203 221 241 234 249 275 292 294 299 294 290 294 303 309 310 311 312 313 313 312 313 311 307 306 304 304 304 307 305 302 300 299 297 296 293 291
204 195 214 233 260 272 271 210 192 218 258 232 241 268 289 307 299 284 281 295 300 303 304 305 306 307 309 312 314 312 309 308 306 304 304 306 304 300 300 299 300 299 293 288
172 200 220 223 245 257 291 110 151 200 262 209 230 262 287 306 300 309 337 318 309 306 306 308 309 310 312 316 317 312 308 307 303 303 303 301 300 297 297 297 300 298 293 288
176 198 218 231 242 262 290 133 160 229 307 340 257 261 270 270 280 303 310 309 308 308 309 312 311 311 312 316 315 309 308 306 305 304 303 301 301 298 296 298 299 298 296 294
193 195 206 212 230 254 141 152 208 280 333 295 280 273 271 277 289 296 302 305 309 311 313 315 314 313 316 319 316 310 309 311 310 306 305 307 309 308 305 305 306 306 305 305
213 212 216 214 237 302 195 224 254 291 288 290 286 283 279 282 287 295 300 302 304 305 308 312 312 312 316 320 316 309 311 315 313 309 308 311 312 312 312 310 311 311 313 315
235 228 237 255 263 269 262 261 271 276 278 282 279 276 276 278 285 291 297 300 302 303 305 309 310 311 315 319 317 311 312 315 312 308 309 312 312 314 319 318 314 311 312 314
241 200 236 258 277 290 262 260 274 284 287 287 286 279 272 275 282 288 293 295 297 298 302 303 303 305 309 314 316 317 317 316 314 313 313 315 315 315 318 320 317 310 304 306
211 209 224 258 263 262 284 286 274 274 279 282 284 286 284 278 280 287 289 290 293 295 300 303 304 306 309 314 316 319 320 317 315 314 318 319 318 317 317 318 320 317 311 313
Height
1531 1531 1530 1532 1534 1533 1532 1530 1527 1527 1532 1531 1524 1520 1520 1522 1522 1521 1521 1520 1519 1519 1518 1517 1516 1515 1515 1514 1513 1513 1512 1512 1512 1511 1510 1509 1509 1509 1509 1510 1510 1510 1511 1512
1531 1533 1537 1537 1537 1536 1533 1530 1527 1528 1532 1530 1524 1519 1517 1519 1519 1520 1519 1518 1518 1517 1516 1515 1514 1513 1512 1511 1510 1510 1509 1509 1509 1508 1507 1507 1507 1506 1506 1506 1506 1507 1507 1508
1530 1537 1539 1538 1537 1535 1532 1531 1529 1530 1529 1529 1526 1511 1512 1515 1517 1518 1518 1517 1516 1515 1514 1513 1512 1511 1510 1509 1508 1507 1507 1506 1505 1505 1505 1504 1504 1504 1504 1503 1503 1503 1503 1504
1536 1540 1539 1537 1536 1536 1529 1534 1534 1533 1529 1519 1526 1507 1504 1512 1513 1514 1515 1515 1515 1514 1513 1511 1510 1508 1507 1506 1506 1505 1504 1503 1502 1502 1502 1501 1500 1500 1500 1499 1499 1499 1500 1500
1536 1540 1539 1537 1537 1537 1534 1536 1535 1533 1530 1526 1524 1519 1501 1511 1510 1511 1513 1514 1513 1513 1511 1510 1508 1507 1505 1504 1502 1502 1501 1500 1499 1499 1498 1497 1497 1497 1496 1496 1495 1496 1496 1497
1540 1542 1541 1540 1540 1539 1538 1536 1534 1532 1528 1520 1519 1517 1500 1505 1509 1510 1512 1513 1512 1511 1510 1508 1507 1505 1503 1501 1499 1498 1498 1497 1496 1495 1494 1493 1493 1492 1492 1491 1491 1491 1492 1492
1536 1540 1542 1542 1539 1538 1538 1530 1518 1513 1511 1506 1523 1519 1506 1510 1513 1513 1513 1512 1511 1509 1508 1506 1504 1502 1500 1498 1496 1495 1494 1493 1492 1491 1491 1490 1489 1489 1488 1488 1487 1487 1487 1488
1532 1530 1540 1542 1540 1538 1538 1534 1524 1516 1504 1502 1519 1511 1504 1512 1514 1513 1513 1512 1510 1508 1506 1504 1501 1499 1497 1495 1494 1492 1490 1489 1488 1487 1486 1486 1485 1485 1484 1484 1483 1483 1483 1484
1532 1532 1542 1543 1543 1541 1537 1535 1538 1533 1531 1525 1506 1507 1508 1511 1512 1512 1511 1510 1509 1506 1504 1502 1499 1496 1495 1492 1490 1489 1487 1485 1484 1483 1482 1482 1481 1480 1480 1479 1480 1479 1480 1480
1539 1538 1540 1543 1544 1544 1542 1540 1538 1532 1522 1509 1500 1502 1499 1506 1508 1509 1509 1508 1507 1505 1503 1500 1497 1494 1492 1489 1487 1485 1484 1482 1481 1479 1478 1477 1476 1476 1476 1476 1475 1475 1475 1476
1543 1540 1539 1541 1540 1536 1542 1542 1538 1533 1529 1516 1503 1496 1504 1507 1508 1509 1509 1508 1507 1504 1501 1498 1495 1492 1489 1487 1484 1481 1480 1479 1477 1476 1474 1473 1472 1472 1471 1471 1471 1470 1470 1471
1543 1540 1534 1535 1540 1541 1539 1537 1537 1530 1527 1527 1515 1505 1506 1508 1509 1509 1508 1507 1505 1503 1500 1496 1493 1490 1486 1484 1481 1479 1477 1476 1474 1472 1470 1469 1468 1468 1467 1466 1465 1465 1466 1466
1543 1542 1532 1524 1536 1542 1540 1539 1539 1537 1532 1524 1517 1504 1507 1508 1508 1508 1507 1505 1503 1500 1497 1494 1491 1488 1484 1481 1479 1477 1475 1473 1471 1469 1467 1465 1464 1463 1462 1462 1461 1461 1461 1461
1540 1539 1532 1520 1517 1527 1533 1535 1537 1536 1528 1518 1512 1502 1503 1505 1505 1506 1505 1503 1501 1498 1495 1492 1489 1486 1483 1480 1477 1474 1472 1470 1468 1466 1464 1462 1460 1459 1458 1457 1456 1456 1456 1455
1539 1535 1533 1529 1528 1529 1527 1527 1529 1530 1521 1516 1504 1504 1502 1504 1505 1505 1503 1501 1499 1496 1493 1490 1487 1484 1480 1477 1474 1472 1469 1467 1464 1462 1460 1458 1457 1455 1454 1453 1452 1452 1451 1450
1538 1535 1535 1531 1528 1528 1525 1521 1521 1522 1519 1515 1510 1506 1504 1505 1505 1503 1501 1499 1496 1494 1491 1488 1485 1481 1478 1475 1472 1469 1466 1463 1461 1459 1457 1455 1453 1451 1450 1449 1448 1447 1446 1445
1535 1536 1533 1520 1528 1527 1513 1510 1512 1514 1512 1511 1506 1502 1503 1503 1502 1501 1499 1497 1494 1492 1489 1486 1482 1479 1475 1472 1469 1466 1463 1460 1458 1456 1453 1451 1449 1447 1446 1445 1443 1442 1441 1440
1533 1532 1530 1524 1526 1517 1500 1509 1509 1509 1507 1508 1505 1504 1503 1502 1500 1498 1496 1494 1492 1489 1486 1483 1479 1476 1473 1469 1466 1463 1460 1457 1455 1453 1450 1448 1445 1443 1442 1440 1439 1437 1436 1435
1531 1530 1527 1524 1516 1502 1502 1507 1509 1509 1504 1503 1503 1502 1502 1500 1497 1494 1492 1491 1489 1486 1483 1480 1477 1473 1470 1466 1463 1460 1457 1454 1452 1449 1447 1444 1442 1440 1438 1436 1434 1433 1432 1432
1531 1530 1527 1524 1516 1503 1495 1506 1507 1509 1500 1499 1500 1500 1499 1499 1494 1490 1490 1488 1485 1483 1480 1476 1473 1470 1466 1463 1460 1456 1453 1451 1448 1446 1443 1441 1439 1437 1434 1432 1430 1429 1429 1428
1529 1528 1526 1520 1513 1500 1502 1506 1508 1503 1494 1498 1497 1497 1497 1496 1494 1491 1487 1485 1482 1479 1476 1473 1470 1467 1464 1460 1457 1453 1450 1447 1445 1442 1440 1438 1436 1433 1431 1429 1427 1426 1425 1423
1518 1518 1520 1517 1511 1501 1503 1504 1503 1497 1497 1496 1495 1495 1494 1492 1489 1487 1484 1481 1479 1476 1473 1470 1466 1463 1460 1457 1454 1450 1447 1444 1441 1439 1436 1434 1432 1429 1427 1425 1424 1423 1421 1419
1513 1510 1507 1507 1501 1499 1499 1498 1497 1496 1495 1494 1493 1492 1490 1488 1486 1483 1481 1478 1476 1473 1470 1467 1464 1460 1458 1455 1451 1448 1445 1441 1439 1436 1433 1431 1429 1427 1425 1423 1421 1419 1418 1416
1509 1510 1508 1504 1496 1497 1496 1495 1494 1494 1492 1491 1490 1488 1487 1485 1482 1480 1478 1475 1473 1470 1467 1464 1461 1458 1455 1452 1449 1446 1442 1439 1436 1433 1431 1429 1427 1424 1422 1421 1419 1417 1416 1415
1503 1506 1504 1500 1496 1494 1492 1491 1491 1490 1489 1487 1486 1485 1483 1481 1479 1477 1474 1472 1469 1467 1464 1461 1458 1455 1452 1449 1446 1443 1440 1437 1434 1431 1429 1427 1424 1422 1420 1419 1417 1416 1414 1414
1499 1499 1498 1492 1491 1492 1489 1488 1487 1486 1485 1484 1482 1480 1479 1478 1475 1473 1471 1469 1466 1463 1461 1458 1455 1452 1449 1446 1443 1440 1437 1435 1432 1429 1427 1425 1423 1421 1419 1417 1415 1414 1413 1412